When you browse on this site, cookies collect data to enhance your experience and personalize the content and advertising you see.
Visit our Privacy Policy to learn more. By continuing to use the site, you agree to this use of cookies and data.
  • In Spain
  • List of Countries
  • For 7 days
  • Water Temperature
  • Satellite Maps
  • Weather Map
  • Weather Widgets
  • user-avatar
    Login

    Hourly Weather Brussels

    Today, 17 December, Monday

    Time Temperature Precipitation Wind Pressure Humidity
    00:00 +1°C° 0 mm 4 mps 756 mmHg 95%
    01:00 +1°C° 0.1 mm 4 mps 756 mmHg 95%
    02:00 +1°C° 0.1 mm 5 mps 756 mmHg 94%
    03:00 +1°C° 0.1 mm 5 mps 756 mmHg 94%
    04:00 +2°C° 0 mm 5 mps 757 mmHg 94%
    05:00 +2°C° 0 mm 5 mps 757 mmHg 94%
    06:00 +3°C° 0 mm 4 mps 757 mmHg 95%
    07:00 +3°C° 0 mm 4 mps 758 mmHg 94%
    08:00 +2°C° 0 mm 5 mps 759 mmHg 93%
    09:00 +2°C° 0 mm 5 mps 759 mmHg 93%
    10:00 +3°C° 0 mm 5 mps 760 mmHg 90%
    11:00 +5°C° 0 mm 5 mps 761 mmHg 88%
    12:00 +6°C° 0 mm 5 mps 761 mmHg 86%
    13:00 +5°C° 0 mm 5 mps 762 mmHg 88%
    14:00 +5°C° 0 mm 4 mps 762 mmHg 89%
    15:00 +5°C° 0 mm 4 mps 762 mmHg 91%
    16:00 +4°C° 0 mm 4 mps 763 mmHg 92%
    17:00 +4°C° 0 mm 4 mps 763 mmHg 93%
    18:00 +4°C° 0 mm 4 mps 764 mmHg 94%
    19:00 +4°C° 0 mm 4 mps 764 mmHg 94%
    20:00 +3°C° 0 mm 4 mps 764 mmHg 94%
    21:00 +3°C° 0 mm 4 mps 765 mmHg 94%
    22:00 +3°C° 0 mm 4 mps 765 mmHg 93%
    23:00 +3°C° 0 mm 4 mps 765 mmHg 93%

    Tomorrow, 18 December, Tuesday

    Time Temperature Precipitation Wind Pressure Humidity
    00:00 +3°C° 0 mm 4 mps 765 mmHg 93%
    01:00 +2°C° 0 mm 5 mps 764 mmHg 93%
    02:00 +2°C° 0 mm 5 mps 764 mmHg 94%
    03:00 +2°C° 0 mm 5 mps 764 mmHg 94%
    04:00 +2°C° 0 mm 5 mps 763 mmHg 94%
    05:00 +3°C° 0 mm 5 mps 763 mmHg 94%
    06:00 +3°C° 0 mm 5 mps 763 mmHg 94%
    07:00 +3°C° 0 mm 5 mps 762 mmHg 93%
    08:00 +3°C° 0 mm 5 mps 762 mmHg 92%
    09:00 +3°C° 0 mm 5 mps 762 mmHg 91%
    10:00 +4°C° 0 mm 6 mps 762 mmHg 86%
    11:00 +5°C° 0 mm 6 mps 761 mmHg 81%
    12:00 +7°C° 0 mm 6 mps 760 mmHg 76%
    13:00 +5°C° 0 mm 6 mps 760 mmHg 74%
    14:00 +5°C° 0 mm 6 mps 759 mmHg 72%
    15:00 +5°C° 0 mm 6 mps 758 mmHg 70%
    16:00 +4°C° 0 mm 6 mps 758 mmHg 69%
    17:00 +4°C° 0 mm 7 mps 757 mmHg 68%
    18:00 +3°C° 0 mm 7 mps 757 mmHg 66%
    19:00 +4°C° 0 mm 7 mps 756 mmHg 66%
    20:00 +4°C° 0 mm 7 mps 756 mmHg 66%
    21:00 +4°C° 0 mm 7 mps 755 mmHg 66%
    22:00 +4°C° 0 mm 7 mps 755 mmHg 68%
    23:00 +4°C° 0 mm 7 mps 755 mmHg 70%

    Day after tomorrow, 19 December, Wednesday

    Time Temperature Precipitation Wind Pressure Humidity
    00:00 +4°C° 0 mm 7 mps 754 mmHg 72%
    01:00 +5°C° 0.5 mm 6 mps 754 mmHg 78%
    02:00 +5°C° 0.5 mm 6 mps 754 mmHg 83%
    03:00 +5°C° 0.5 mm 6 mps 755 mmHg 88%
    04:00 +5°C° 0.2 mm 6 mps 755 mmHg 89%
    05:00 +6°C° 0.2 mm 5 mps 755 mmHg 91%
    06:00 +6°C° 0.2 mm 5 mps 755 mmHg 92%
    07:00 +6°C° 0 mm 5 mps 755 mmHg 92%
    08:00 +6°C° 0 mm 5 mps 756 mmHg 92%
    09:00 +6°C° 0 mm 5 mps 756 mmHg 92%
    10:00 +7°C° 0 mm 5 mps 756 mmHg 88%
    11:00 +7°C° 0 mm 5 mps 755 mmHg 85%
    12:00 +8°C° 0 mm 6 mps 755 mmHg 81%
    13:00 +8°C° 0 mm 5 mps 755 mmHg 82%
    14:00 +8°C° 0 mm 5 mps 755 mmHg 83%
    15:00 +7°C° 0 mm 4 mps 755 mmHg 84%
    16:00 +7°C° 0 mm 4 mps 755 mmHg 84%
    17:00 +7°C° 0 mm 4 mps 755 mmHg 85%
    18:00 +7°C° 0 mm 4 mps 756 mmHg 85%
    19:00 +6°C° 0 mm 4 mps 756 mmHg 85%
    20:00 +6°C° 0 mm 4 mps 756 mmHg 86%
    21:00 +6°C° 0 mm 4 mps 756 mmHg 86%
    22:00 +5°C° 0 mm 4 mps 756 mmHg 88%
    23:00 +5°C° 0 mm 4 mps 756 mmHg 90%

    20 December, Thursday

    Time Temperature Precipitation Wind Pressure Humidity
    00:00 +4°C° 0 mm 4 mps 756 mmHg 91%
    01:00 +4°C° 0 mm 4 mps 757 mmHg 92%
    02:00 +4°C° 0 mm 4 mps 757 mmHg 92%
    03:00 +4°C° 0 mm 4 mps 757 mmHg 93%
    04:00 +3°C° 0 mm 4 mps 757 mmHg 93%
    05:00 +3°C° 0 mm 4 mps 757 mmHg 93%
    06:00 +2°C° 0 mm 5 mps 757 mmHg 93%
    07:00 +2°C° 0 mm 5 mps 758 mmHg 92%
    08:00 +2°C° 0 mm 5 mps 758 mmHg 92%
    09:00 +3°C° 0 mm 6 mps 758 mmHg 91%
    10:00 +3°C° 0 mm 6 mps 758 mmHg 88%
    11:00 +4°C° 0 mm 7 mps 758 mmHg 84%
    12:00 +5°C° 0 mm 7 mps 758 mmHg 81%
    13:00 +5°C° 0 mm 7 mps 757 mmHg 81%
    14:00 +5°C° 0 mm 7 mps 757 mmHg 80%
    15:00 +5°C° 0 mm 7 mps 757 mmHg 80%
    16:00 +5°C° 0.4 mm 8 mps 757 mmHg 81%
    17:00 +5°C° 0.4 mm 8 mps 756 mmHg 82%
    18:00 +6°C° 0.4 mm 8 mps 756 mmHg 83%
    19:00 +6°C° 0.6 mm 8 mps 756 mmHg 85%
    20:00 +6°C° 0.6 mm 7 mps 756 mmHg 87%
    21:00 +6°C° 0.6 mm 7 mps 756 mmHg 89%
    22:00 +7°C° 0.4 mm 6 mps 756 mmHg 90%
    23:00 +7°C° 0.4 mm 6 mps 756 mmHg 90%

    21 December, Friday

    Time Temperature Precipitation Wind Pressure Humidity
    00:00 +7°C° 0.4 mm 5 mps 756 mmHg 91%
    01:00 +7°C° 0.2 mm 5 mps 755 mmHg 91%
    02:00 +7°C° 0.2 mm 4 mps 755 mmHg 92%
    03:00 +7°C° 0.2 mm 4 mps 754 mmHg 93%
    04:00 +7°C° 0.5 mm 4 mps 754 mmHg 94%
    05:00 +8°C° 0.5 mm 4 mps 753 mmHg 94%
    06:00 +8°C° 0.5 mm 4 mps 753 mmHg 94%
    07:00 +9°C° 1.9 mm 6 mps 752 mmHg 92%
    08:00 +9°C° 1.9 mm 7 mps 752 mmHg 90%
    09:00 +10°C° 1.9 mm 8 mps 751 mmHg 88%
    10:00 +10°C° 1 mm 9 mps 750 mmHg 87%
    11:00 +9°C° 1 mm 10 mps 750 mmHg 86%
    12:00 +9°C° 1 mm 11 mps 749 mmHg 84%
    13:00 +11°C° 0.5 mm 11 mps 750 mmHg 82%
    14:00 +11°C° 0.5 mm 10 mps 750 mmHg 79%
    15:00 +11°C° 0.5 mm 9 mps 751 mmHg 77%
    16:00 +10°C° 0 mm 8 mps 752 mmHg 77%
    17:00 +9°C° 0 mm 7 mps 753 mmHg 78%
    18:00 +8°C° 0 mm 6 mps 755 mmHg 78%
    19:00 +8°C° 0 mm 6 mps 755 mmHg 80%
    20:00 +8°C° 0 mm 6 mps 756 mmHg 82%
    21:00 +8°C° 0 mm 6 mps 756 mmHg 85%
    22:00 +8°C° 0.1 mm 6 mps 756 mmHg 85%
    23:00 +8°C° 0.1 mm 7 mps 756 mmHg 85%

    22 December, Saturday

    Time Temperature Precipitation Wind Pressure Humidity
    00:00 +8°C° 0.1 mm 7 mps 756 mmHg 85%
    01:00 +8°C° 0.4 mm 7 mps 755 mmHg 85%
    02:00 +9°C° 0.4 mm 7 mps 755 mmHg 86%
    03:00 +9°C° 0.4 mm 8 mps 755 mmHg 87%
    04:00 +9°C° 0.2 mm 7 mps 755 mmHg 86%
    05:00 +8°C° 0.2 mm 7 mps 756 mmHg 85%
    06:00 +8°C° 0.2 mm 6 mps 756 mmHg 84%
    07:00 +8°C° 0 mm 6 mps 757 mmHg 83%
    08:00 +8°C° 0 mm 6 mps 758 mmHg 82%
    09:00 +8°C° 0 mm 6 mps 758 mmHg 81%
    10:00 +8°C° 0 mm 7 mps 759 mmHg 78%
    11:00 +9°C° 0 mm 7 mps 759 mmHg 75%
    12:00 +10°C° 0 mm 7 mps 760 mmHg 72%
    13:00 +9°C° 0 mm 6 mps 760 mmHg 75%
    14:00 +9°C° 0 mm 5 mps 760 mmHg 78%
    15:00 +10°C° 0 mm 4 mps 761 mmHg 81%
    16:00 +8°C° 0 mm 4 mps 761 mmHg 85%
    17:00 +8°C° 0 mm 4 mps 761 mmHg 89%
    18:00 +8°C° 0 mm 4 mps 761 mmHg 92%
    19:00 +8°C° 0 mm 4 mps 761 mmHg 93%
    20:00 +9°C° 0 mm 3 mps 761 mmHg 94%
    21:00 +9°C° 0 mm 3 mps 762 mmHg 95%
    22:00 +9°C° 0.1 mm 3 mps 762 mmHg 95%
    23:00 +9°C° 0.1 mm 3 mps 762 mmHg 96%
    Show more